When you browse on this site, cookies collect data to enhance your experience and personalize the content and advertising you see.
Visit our Privacy Policy to learn more. By continuing to use the site, you agree to this use of cookies and data.
  • In Schweiz
  • Länderverzeichnis
  • Für 7 Tage
  • Wassertemperatur
  • Wetterkarte
  • Widgets
  • user-avatar
    Anmelden

    Stündliche Wetter Albany

    Heute, 30 Mai, Samstag

    Zeit Temperatur Niederschläge Wind Luftdruck Luftfeuchtigkeit
    00:00 +7°C° 0.2 mm 9 m/S 753 mmHg 80%
    01:00 +7°C° 0.2 mm 9 m/S 754 mmHg 79%
    02:00 +8°C° 0 mm 10 m/S 754 mmHg 74%
    03:00 +8°C° 0 mm 9 m/S 755 mmHg 74%
    04:00 +7°C° 0 mm 8 m/S 755 mmHg 73%
    05:00 +7°C° 0 mm 8 m/S 756 mmHg 73%
    06:00 +8°C° 0.1 mm 7 m/S 757 mmHg 74%
    07:00 +9°C° 0.1 mm 7 m/S 757 mmHg 76%
    08:00 +9°C° 0 mm 6 m/S 757 mmHg 77%
    09:00 +9°C° 0.1 mm 6 m/S 758 mmHg 75%
    10:00 +10°C° 0.1 mm 6 m/S 758 mmHg 74%
    11:00 +11°C° 0.1 mm 6 m/S 758 mmHg 73%
    12:00 +11°C° 0.1 mm 7 m/S 758 mmHg 71%
    13:00 +12°C° 0.1 mm 7 m/S 757 mmHg 70%
    14:00 +12°C° 0 mm 7 m/S 757 mmHg 69%
    15:00 +12°C° 0.1 mm 7 m/S 757 mmHg 70%
    16:00 +12°C° 0.1 mm 7 m/S 757 mmHg 71%
    17:00 +12°C° 0.1 mm 7 m/S 757 mmHg 72%
    18:00 +12°C° 0.2 mm 8 m/S 757 mmHg 74%
    19:00 +12°C° 0.2 mm 8 m/S 757 mmHg 76%
    20:00 +12°C° 0.2 mm 9 m/S 757 mmHg 78%
    21:00 +13°C° 0.5 mm 9 m/S 757 mmHg 80%
    22:00 +13°C° 0.5 mm 9 m/S 757 mmHg 83%
    23:00 +13°C° 0.5 mm 9 m/S 757 mmHg 85%

    Morgen, 31 Mai, Sonntag

    Zeit Temperatur Niederschläge Wind Luftdruck Luftfeuchtigkeit
    00:00 +13°C° 0.5 mm 9 m/S 757 mmHg 85%
    01:00 +13°C° 0.5 mm 9 m/S 757 mmHg 86%
    02:00 +13°C° 0.5 mm 8 m/S 758 mmHg 86%
    03:00 +13°C° 0.3 mm 8 m/S 758 mmHg 86%
    04:00 +13°C° 0.3 mm 8 m/S 758 mmHg 86%
    05:00 +14°C° 0.3 mm 7 m/S 759 mmHg 86%
    06:00 +14°C° 0.2 mm 7 m/S 759 mmHg 85%
    07:00 +14°C° 0.2 mm 7 m/S 760 mmHg 85%
    08:00 +14°C° 0.2 mm 6 m/S 760 mmHg 84%
    09:00 +15°C° 0.1 mm 6 m/S 761 mmHg 80%
    10:00 +15°C° 0.1 mm 7 m/S 762 mmHg 76%
    11:00 +16°C° 0.1 mm 7 m/S 762 mmHg 72%
    12:00 +16°C° 0.1 mm 7 m/S 762 mmHg 71%
    13:00 +16°C° 0.1 mm 6 m/S 762 mmHg 70%
    14:00 +16°C° 0.1 mm 6 m/S 761 mmHg 69%
    15:00 +15°C° 0 mm 6 m/S 762 mmHg 72%
    16:00 +15°C° 0 mm 5 m/S 763 mmHg 75%
    17:00 +14°C° 0 mm 4 m/S 764 mmHg 79%
    18:00 +13°C° 0 mm 4 m/S 764 mmHg 81%
    19:00 +12°C° 0 mm 4 m/S 764 mmHg 83%
    20:00 +12°C° 0 mm 3 m/S 764 mmHg 85%
    21:00 +12°C° 0 mm 3 m/S 764 mmHg 83%
    22:00 +12°C° 0 mm 3 m/S 765 mmHg 82%
    23:00 +13°C° 0 mm 3 m/S 765 mmHg 80%

    übermorgen, 1 Juni, Montag

    Zeit Temperatur Niederschläge Wind Luftdruck Luftfeuchtigkeit
    00:00 +13°C° 0 mm 2 m/S 765 mmHg 82%
    01:00 +13°C° 0 mm 2 m/S 765 mmHg 83%
    02:00 +13°C° 0 mm 2 m/S 765 mmHg 85%
    03:00 +13°C° 0 mm 2 m/S 765 mmHg 83%
    04:00 +13°C° 0 mm 2 m/S 766 mmHg 82%
    05:00 +13°C° 0 mm 2 m/S 766 mmHg 80%
    06:00 +13°C° 0 mm 2 m/S 766 mmHg 80%
    07:00 +14°C° 0 mm 2 m/S 766 mmHg 80%
    08:00 +14°C° 0 mm 2 m/S 766 mmHg 80%
    09:00 +15°C° 0 mm 2 m/S 767 mmHg 75%
    10:00 +16°C° 0 mm 2 m/S 767 mmHg 70%
    11:00 +18°C° 0 mm 1 m/S 767 mmHg 65%
    12:00 +18°C° 0 mm 1 m/S 767 mmHg 65%
    13:00 +17°C° 0 mm 2 m/S 766 mmHg 65%
    14:00 +17°C° 0 mm 2 m/S 766 mmHg 66%
    15:00 +16°C° 0 mm 2 m/S 766 mmHg 69%
    16:00 +16°C° 0 mm 2 m/S 766 mmHg 72%
    17:00 +15°C° 0 mm 1 m/S 766 mmHg 75%
    18:00 +15°C° 0 mm 1 m/S 767 mmHg 75%
    19:00 +15°C° 0 mm 1 m/S 767 mmHg 75%
    20:00 +14°C° 0 mm 0 m/S 767 mmHg 75%
    21:00 +14°C° 0 mm 0 m/S 767 mmHg 75%
    22:00 +14°C° 0 mm 0 m/S 767 mmHg 75%
    23:00 +13°C° 0 mm 0 m/S 767 mmHg 74%

    2 Juni, Dienstag

    Zeit Temperatur Niederschläge Wind Luftdruck Luftfeuchtigkeit
    00:00 +13°C° 0 mm 0 m/S 767 mmHg 75%
    01:00 +13°C° 0 mm 0 m/S 767 mmHg 76%
    02:00 +12°C° 0 mm 0 m/S 767 mmHg 77%
    03:00 +13°C° 0 mm 1 m/S 767 mmHg 78%
    04:00 +12°C° 0 mm 1 m/S 767 mmHg 79%
    05:00 +12°C° 0 mm 1 m/S 767 mmHg 80%
    06:00 +12°C° 0 mm 1 m/S 767 mmHg 81%
    07:00 +12°C° 0 mm 1 m/S 767 mmHg 81%
    08:00 +12°C° 0 mm 1 m/S 768 mmHg 82%
    09:00 +14°C° 0 mm 2 m/S 768 mmHg 77%
    10:00 +15°C° 0 mm 2 m/S 768 mmHg 72%
    11:00 +17°C° 0 mm 3 m/S 767 mmHg 67%
    12:00 +18°C° 0 mm 3 m/S 767 mmHg 64%
    13:00 +18°C° 0 mm 3 m/S 766 mmHg 62%
    14:00 +19°C° 0 mm 3 m/S 765 mmHg 60%
    15:00 +18°C° 0 mm 3 m/S 765 mmHg 64%
    16:00 +17°C° 0 mm 3 m/S 765 mmHg 69%
    17:00 +16°C° 0 mm 3 m/S 765 mmHg 73%
    18:00 +16°C° 0 mm 3 m/S 765 mmHg 76%
    19:00 +14°C° 0 mm 4 m/S 766 mmHg 78%
    20:00 +14°C° 0 mm 4 m/S 766 mmHg 81%
    21:00 +13°C° 0 mm 4 m/S 766 mmHg 82%
    22:00 +13°C° 0 mm 4 m/S 766 mmHg 84%
    23:00 +12°C° 0 mm 4 m/S 766 mmHg 85%

    3 Juni, Mittwoch

    Zeit Temperatur Niederschläge Wind Luftdruck Luftfeuchtigkeit
    00:00 +12°C° 0 mm 4 m/S 765 mmHg 82%
    01:00 +12°C° 0 mm 4 m/S 765 mmHg 79%
    02:00 +13°C° 0 mm 4 m/S 765 mmHg 76%
    03:00 +12°C° 0 mm 4 m/S 765 mmHg 76%
    04:00 +12°C° 0 mm 3 m/S 765 mmHg 75%
    05:00 +12°C° 0 mm 3 m/S 764 mmHg 75%
    06:00 +12°C° 0 mm 4 m/S 764 mmHg 73%
    07:00 +12°C° 0 mm 4 m/S 765 mmHg 72%
    08:00 +13°C° 0 mm 4 m/S 765 mmHg 70%
    09:00 +15°C° 0 mm 4 m/S 764 mmHg 65%
    10:00 +16°C° 0 mm 5 m/S 764 mmHg 59%
    11:00 +19°C° 0 mm 5 m/S 764 mmHg 54%
    12:00 +20°C° 0 mm 4 m/S 763 mmHg 53%
    13:00 +21°C° 0 mm 4 m/S 763 mmHg 52%
    14:00 +22°C° 0 mm 3 m/S 762 mmHg 51%
    15:00 +20°C° 0 mm 3 m/S 762 mmHg 56%
    16:00 +19°C° 0 mm 3 m/S 762 mmHg 61%
    17:00 +18°C° 0 mm 2 m/S 762 mmHg 65%
    18:00 +18°C° 0 mm 3 m/S 762 mmHg 64%
    19:00 +18°C° 0 mm 3 m/S 762 mmHg 62%
    20:00 +17°C° 0 mm 3 m/S 763 mmHg 60%
    21:00 +17°C° 0 mm 4 m/S 762 mmHg 60%
    22:00 +17°C° 0 mm 4 m/S 762 mmHg 60%
    23:00 +17°C° 0 mm 4 m/S 762 mmHg 60%

    4 Juni, Donnerstag

    Zeit Temperatur Niederschläge Wind Luftdruck Luftfeuchtigkeit
    00:00 +16°C° 0 mm 3 m/S 762 mmHg 60%
    01:00 +16°C° 0 mm 3 m/S 762 mmHg 61%
    02:00 +16°C° 0 mm 3 m/S 762 mmHg 62%
    03:00 +16°C° 0 mm 3 m/S 762 mmHg 62%
    04:00 +16°C° 0 mm 3 m/S 762 mmHg 62%
    05:00 +16°C° 0 mm 3 m/S 762 mmHg 62%
    06:00 +16°C° 0 mm 3 m/S 762 mmHg 62%
    07:00 +16°C° 0 mm 2 m/S 762 mmHg 63%
    08:00 +16°C° 0 mm 2 m/S 763 mmHg 64%
    09:00 +17°C° 0 mm 2 m/S 763 mmHg 62%
    10:00 +18°C° 0 mm 2 m/S 763 mmHg 60%
    11:00 +20°C° 0 mm 2 m/S 763 mmHg 59%
    12:00 +20°C° 0 mm 3 m/S 763 mmHg 60%
    13:00 +20°C° 0 mm 3 m/S 763 mmHg 61%
    14:00 +21°C° 0 mm 3 m/S 763 mmHg 62%
    15:00 +19°C° 0 mm 3 m/S 763 mmHg 70%
    16:00 +18°C° 0 mm 3 m/S 763 mmHg 77%
    17:00 +16°C° 0 mm 3 m/S 764 mmHg 85%
    18:00 +16°C° 0 mm 3 m/S 764 mmHg 86%
    19:00 +15°C° 0 mm 2 m/S 765 mmHg 87%
    20:00 +14°C° 0 mm 2 m/S 765 mmHg 88%
    21:00 +14°C° 0 mm 2 m/S 765 mmHg 88%
    22:00 +13°C° 0 mm 1 m/S 765 mmHg 88%
    23:00 +13°C° 0 mm 1 m/S 765 mmHg 88%
    Mehr zeigen